• în România
  • Lista ţărilor
  • Pe 7 zile
  • Temperatura apei
  • Hartă satelitară
  • Meteo pe hartă
  • Widget-uri
  • user-avatar
    Intrare

    Meteo pe oră la Tatabanya

    Astăzi, 16 Octombrie, Marţi

    Timp Temperatura Precipitaţii Vânt Presiune Umiditate
    00:00 +13°C° 0 mm 2 m/s 745 mmHg 42%
    01:00 +13°C° 0 mm 2 m/s 746 mmHg 44%
    02:00 +13°C° 0 mm 2 m/s 745 mmHg 45%
    03:00 +12°C° 0 mm 2 m/s 745 mmHg 47%
    04:00 +12°C° 0 mm 2 m/s 745 mmHg 48%
    05:00 +12°C° 0 mm 2 m/s 745 mmHg 49%
    06:00 +12°C° 0 mm 2 m/s 745 mmHg 50%
    07:00 +12°C° 0 mm 2 m/s 746 mmHg 51%
    08:00 +13°C° 0 mm 3 m/s 746 mmHg 46%
    09:00 +16°C° 0 mm 3 m/s 746 mmHg 41%
    10:00 +18°C° 0 mm 4 m/s 746 mmHg 37%
    11:00 +19°C° 0 mm 4 m/s 746 mmHg 35%
    12:00 +21°C° 0 mm 4 m/s 746 mmHg 33%
    13:00 +22°C° 0 mm 4 m/s 746 mmHg 31%
    14:00 +21°C° 0 mm 3 m/s 745 mmHg 33%
    15:00 +21°C° 0 mm 3 m/s 745 mmHg 35%
    16:00 +21°C° 0 mm 2 m/s 745 mmHg 36%
    17:00 +19°C° 0 mm 2 m/s 745 mmHg 39%
    18:00 +18°C° 0 mm 2 m/s 745 mmHg 41%
    19:00 +17°C° 0 mm 2 m/s 745 mmHg 43%
    20:00 +17°C° 0 mm 2 m/s 745 mmHg 43%
    21:00 +16°C° 0 mm 2 m/s 745 mmHg 43%
    22:00 +16°C° 0 mm 2 m/s 745 mmHg 43%
    23:00 +16°C° 0 mm 2 m/s 745 mmHg 43%

    Mâine, 17 Octombrie, Miercuri

    Timp Temperatura Precipitaţii Vânt Presiune Umiditate
    00:00 +15°C° 0 mm 2 m/s 745 mmHg 43%
    01:00 +15°C° 0 mm 2 m/s 745 mmHg 43%
    02:00 +15°C° 0 mm 2 m/s 745 mmHg 43%
    03:00 +14°C° 0 mm 2 m/s 745 mmHg 44%
    04:00 +14°C° 0 mm 2 m/s 745 mmHg 44%
    05:00 +14°C° 0 mm 2 m/s 745 mmHg 45%
    06:00 +14°C° 0 mm 2 m/s 745 mmHg 45%
    07:00 +13°C° 0 mm 2 m/s 745 mmHg 46%
    08:00 +15°C° 0 mm 2 m/s 745 mmHg 41%
    09:00 +17°C° 0 mm 3 m/s 745 mmHg 37%
    10:00 +19°C° 0 mm 3 m/s 745 mmHg 32%
    11:00 +20°C° 0 mm 3 m/s 745 mmHg 30%
    12:00 +21°C° 0 mm 3 m/s 745 mmHg 28%
    13:00 +24°C° 0 mm 3 m/s 744 mmHg 26%
    14:00 +22°C° 0 mm 3 m/s 744 mmHg 28%
    15:00 +23°C° 0 mm 2 m/s 744 mmHg 29%
    16:00 +21°C° 0 mm 2 m/s 744 mmHg 31%
    17:00 +20°C° 0 mm 2 m/s 744 mmHg 32%
    18:00 +19°C° 0 mm 2 m/s 744 mmHg 34%
    19:00 +17°C° 0 mm 2 m/s 744 mmHg 36%
    20:00 +17°C° 0 mm 2 m/s 744 mmHg 36%
    21:00 +16°C° 0 mm 2 m/s 744 mmHg 37%
    22:00 +16°C° 0 mm 2 m/s 744 mmHg 38%
    23:00 +16°C° 0 mm 2 m/s 744 mmHg 38%

    Poimâine, 18 Octombrie, Joi

    Timp Temperatura Precipitaţii Vânt Presiune Umiditate
    00:00 +15°C° 0 mm 2 m/s 744 mmHg 39%
    01:00 +15°C° 0 mm 2 m/s 743 mmHg 40%
    02:00 +14°C° 0 mm 1 m/s 743 mmHg 40%
    03:00 +14°C° 0 mm 1 m/s 743 mmHg 41%
    04:00 +13°C° 0 mm 1 m/s 743 mmHg 42%
    05:00 +14°C° 0 mm 1 m/s 743 mmHg 43%
    06:00 +14°C° 0 mm 1 m/s 743 mmHg 44%
    07:00 +14°C° 0 mm 1 m/s 744 mmHg 44%
    08:00 +15°C° 0 mm 1 m/s 744 mmHg 43%
    09:00 +16°C° 0 mm 1 m/s 744 mmHg 41%
    10:00 +19°C° 0 mm 1 m/s 744 mmHg 39%
    11:00 +19°C° 0.1 mm 1 m/s 744 mmHg 40%
    12:00 +19°C° 0.1 mm 1 m/s 743 mmHg 42%
    13:00 +19°C° 0.1 mm 2 m/s 743 mmHg 43%
    14:00 +18°C° 0.1 mm 2 m/s 743 mmHg 46%
    15:00 +18°C° 0.1 mm 2 m/s 743 mmHg 48%
    16:00 +17°C° 0.1 mm 2 m/s 743 mmHg 51%
    17:00 +17°C° 0 mm 2 m/s 743 mmHg 52%
    18:00 +16°C° 0 mm 1 m/s 743 mmHg 53%
    19:00 +16°C° 0 mm 1 m/s 743 mmHg 55%
    20:00 +15°C° 0 mm 1 m/s 743 mmHg 56%
    21:00 +15°C° 0 mm 1 m/s 744 mmHg 57%
    22:00 +14°C° 0 mm 1 m/s 744 mmHg 58%
    23:00 +14°C° 0 mm 1 m/s 744 mmHg 59%

    19 Octombrie, Vineri

    Timp Temperatura Precipitaţii Vânt Presiune Umiditate
    00:00 +14°C° 0 mm 1 m/s 744 mmHg 61%
    01:00 +13°C° 0 mm 1 m/s 744 mmHg 63%
    02:00 +13°C° 0 mm 1 m/s 744 mmHg 64%
    03:00 +12°C° 0 mm 1 m/s 744 mmHg 65%
    04:00 +12°C° 0 mm 2 m/s 744 mmHg 67%
    05:00 +12°C° 0 mm 2 m/s 744 mmHg 67%
    06:00 +12°C° 0 mm 2 m/s 744 mmHg 68%
    07:00 +12°C° 0 mm 2 m/s 744 mmHg 69%
    08:00 +14°C° 0 mm 2 m/s 744 mmHg 62%
    09:00 +16°C° 0 mm 2 m/s 745 mmHg 55%
    10:00 +18°C° 0 mm 2 m/s 745 mmHg 49%
    11:00 +19°C° 0 mm 2 m/s 745 mmHg 46%
    12:00 +20°C° 0 mm 3 m/s 745 mmHg 43%
    13:00 +21°C° 0 mm 3 m/s 744 mmHg 40%
    14:00 +21°C° 0 mm 3 m/s 744 mmHg 42%
    15:00 +20°C° 0 mm 2 m/s 744 mmHg 44%
    16:00 +20°C° 0 mm 2 m/s 744 mmHg 46%
    17:00 +18°C° 0 mm 2 m/s 744 mmHg 52%
    18:00 +17°C° 0 mm 2 m/s 744 mmHg 58%
    19:00 +15°C° 0 mm 2 m/s 745 mmHg 64%
    20:00 +15°C° 0 mm 2 m/s 745 mmHg 68%
    21:00 +14°C° 0 mm 2 m/s 745 mmHg 71%
    22:00 +13°C° 0 mm 2 m/s 745 mmHg 75%
    23:00 +13°C° 0 mm 2 m/s 745 mmHg 78%

    20 Octombrie, Sâmbătă

    Timp Temperatura Precipitaţii Vânt Presiune Umiditate
    00:00 +13°C° 0 mm 2 m/s 745 mmHg 80%
    01:00 +12°C° 0 mm 2 m/s 745 mmHg 82%
    02:00 +12°C° 0 mm 2 m/s 745 mmHg 84%
    03:00 +10°C° 0 mm 2 m/s 745 mmHg 86%
    04:00 +10°C° 0 mm 2 m/s 745 mmHg 87%
    05:00 +10°C° 0 mm 2 m/s 745 mmHg 87%
    06:00 +10°C° 0 mm 2 m/s 746 mmHg 88%
    07:00 +10°C° 0 mm 2 m/s 746 mmHg 88%
    08:00 +13°C° 0 mm 2 m/s 746 mmHg 78%
    09:00 +14°C° 0 mm 2 m/s 746 mmHg 69%
    10:00 +16°C° 0 mm 2 m/s 746 mmHg 60%
    11:00 +17°C° 0 mm 3 m/s 746 mmHg 55%
    12:00 +18°C° 0 mm 3 m/s 746 mmHg 50%
    13:00 +19°C° 0 mm 4 m/s 746 mmHg 46%
    14:00 +19°C° 0 mm 4 m/s 745 mmHg 46%
    15:00 +18°C° 0 mm 4 m/s 745 mmHg 46%
    16:00 +18°C° 0 mm 4 m/s 745 mmHg 46%
    17:00 +16°C° 0 mm 3 m/s 745 mmHg 49%
    18:00 +14°C° 0 mm 3 m/s 745 mmHg 51%
    19:00 +13°C° 0 mm 3 m/s 746 mmHg 54%
    20:00 +12°C° 0 mm 3 m/s 746 mmHg 54%
    21:00 +12°C° 0 mm 3 m/s 746 mmHg 55%
    22:00 +11°C° 0 mm 3 m/s 746 mmHg 55%
    23:00 +10°C° 0 mm 3 m/s 746 mmHg 57%

    21 Octombrie, Duminică

    Timp Temperatura Precipitaţii Vânt Presiune Umiditate
    00:00 +10°C° 0 mm 3 m/s 746 mmHg 58%
    01:00 +9°C° 0 mm 3 m/s 746 mmHg 60%
    02:00 +9°C° 0 mm 3 m/s 746 mmHg 61%
    03:00 +8°C° 0 mm 3 m/s 746 mmHg 62%
    04:00 +8°C° 0 mm 3 m/s 746 mmHg 63%
    05:00 +6°C° 0 mm 4 m/s 746 mmHg 64%
    06:00 +6°C° 0 mm 4 m/s 746 mmHg 65%
    07:00 +6°C° 0 mm 4 m/s 747 mmHg 66%
    08:00 +8°C° 0 mm 5 m/s 747 mmHg 61%
    09:00 +9°C° 0 mm 5 m/s 747 mmHg 55%
    10:00 +12°C° 0 mm 5 m/s 747 mmHg 50%
    11:00 +11°C° 0 mm 6 m/s 747 mmHg 47%
    12:00 +13°C° 0 mm 6 m/s 746 mmHg 45%
    13:00 +14°C° 0 mm 6 m/s 746 mmHg 42%
    14:00 +13°C° 0 mm 6 m/s 746 mmHg 43%
    15:00 +13°C° 0 mm 5 m/s 746 mmHg 43%
    16:00 +12°C° 0 mm 5 m/s 746 mmHg 44%
    17:00 +10°C° 0 mm 5 m/s 746 mmHg 48%
    18:00 +10°C° 0 mm 4 m/s 746 mmHg 52%
    19:00 +9°C° 0 mm 3 m/s 746 mmHg 56%
    20:00 +8°C° 0 mm 3 m/s 746 mmHg 59%
    21:00 +7°C° 0 mm 3 m/s 746 mmHg 62%
    22:00 +7°C° 0 mm 3 m/s 746 mmHg 65%
    23:00 +5°C° 0 mm 3 m/s 746 mmHg 68%
    Arată mai mult